World > North America > United States > Connecticut > Avon   Town of Avon, Connecticut

Hourly Avon, CT Regional Weather

Feedback E-mail the Weather

Quick WX

Avon, CT Weather Maps

°F °C°F °C
Avon Weather Map
UTC Time: 8/13/2022, 12:57
Your Time:

Avon, CT Regional Weather

Expires:202208131300;;025289
ASUS41 KOKX 131214
RWROKX

Regional Weather Roundup
National Weather Service New York NY
800 AM EDT SAT AUG 13 2022

Note: "FAIR" indicates few or no clouds below 12,000 feet with no
significant weather and/or obstructions to visibility.


CTZ002-004>006-009-010-012-RIZ004-006-007-MAZ004-011-015-131300-
Southern New England

 In CT
  
CITY           SKY/WX    TMP DP  RH WIND       PRES   REMARKS
Bradley Intl   MOSUNNY   62  51  67 N6        30.11R                  
Hartford       MOSUNNY   64  52  64 N6        30.11R                  
Danbury        SUNNY     65  51  60 N6        30.13R                  
Wtrbury/Oxford SUNNY     62  52  69 N7        30.12S                  
Norwalk Harbor NOT AVBL                                               
Bridgeport     SUNNY     67  51  56 N13G21    30.09R                  
Meriden        SUNNY     65  50  58 N8        30.11R                  
New Haven      SUNNY     68  53  58 N15G22    30.10R                  
Chester        FAIR      64  54  68 VRB6      30.10R                  
Groton         SUNNY     66  51  58 N14       30.07R                  
Willimantic    SUNNY     61  52  72 N7        30.10F                  

 In RI
  
CITY           SKY/WX    TMP DP  RH WIND       PRES   REMARKS
Providence     MOSUNNY   64  52  64 N7        30.08R                  
Block Island   SUNNY     63  55  75 N7        30.07R                  
Westerly       SUNNY     63  52  67 N9        30.07R                  
 
In MA
  
CITY           SKY/WX    TMP DP  RH WIND       PRES   REMARKS
Boston         PTSUNNY   64  51  62 N10       30.08R                  
Worcester      SUNNY     59  50  72 N6        30.10S                  
Westfield      SUNNY     61  52  72 N3        30.12R                  
Provincetown   NOT AVBL                                               
Nantucket      PTSUNNY   71  64  78 N12       30.03R                  
$$


SKY/WX - Weather  TMP - Temperature  DP - Dew Point  RH - Humidity
WIND - Wind Direction/Speed PRES - Barometric Pressure VSB - Visibility
WCI - Wind Chill Index E13G22 Wind - East Wind 13 mph/Gusts of 22 mph

Trending Headlines

Avon Radar Loop



Avon Quick Facts


National Two Day Weather Forecast


E-mail the Avon Weather Forecast

Voice your opinion or tell us about page issues...